Temperature
3 3 3 4 4 4 4 4 5 5 5 5 5 5 6 6 6 6 6 7 7 7 7 7 7 7 7 7 7 7 7 7 7 7 7 7 7 7 7 8 8 8 8
3 3 3 3 3 3 3 4 4 4 4 5 5 5 5 5 6 6 6 6 6 6 7 7 7 7 7 7 7 7 7 7 7 7 7 6 7 7 7 7 7 7 7
2 2 2 3 3 3 3 3 3 3 4 4 4 4 4 4 5 5 5 5 5 6 6 6 6 6 6 7 6 6 7 7 6 6 6 6 6 6 6 7 7 7 7
1 2 2 2 2 2 2 3 3 3 3 3 4 4 4 4 4 4 4 4 5 5 5 6 6 6 6 6 6 6 6 6 6 6 6 6 6 6 6 6 6 6 6
1 1 1 2 2 2 2 2 2 3 3 3 3 3 3 3 4 4 4 4 4 4 5 5 5 5 5 6 6 6 6 6 6 6 6 6 6 6 6 5 5 6 6
0 1 1 1 1 2 2 2 2 2 2 2 3 3 3 3 3 3 3 3 4 4 4 4 4 4 5 5 5 5 5 5 5 5 5 5 5 5 5 5 5 5 5
-0 0 0 0 1 1 1 1 1 2 2 2 2 2 2 2 2 3 3 3 3 3 3 3 4 4 4 4 5 5 5 5 5 5 5 5 5 5 5 5 4 4 4
-1 -0 -0 -0 0 0 1 1 1 1 1 1 2 2 2 2 2 2 2 2 2 3 3 3 3 3 4 4 4 4 4 4 4 4 4 4 4 4 4 4 4 4 4
-1 -1 -1 -0 -0 -0 0 0 1 1 1 1 1 1 1 1 1 1 1 2 2 2 2 2 3 3 3 3 3 3 3 4 4 4 4 4 4 4 4 4 4 4 3
-1 -1 -1 -1 -1 -1 -0 -0 0 0 0 0 0 0 0 0 1 1 1 1 1 2 2 2 2 2 2 3 3 3 3 3 3 3 3 3 4 3 3 3 3 3 3
-2 -1 -1 -1 -1 -1 -1 -1 -1 -0 -0 -0 -0 -0 -0 -0 0 0 1 1 1 1 1 1 1 2 2 2 2 2 2 2 3 3 3 3 3 3 3 3 3 3 3
-2 -2 -2 -2 -2 -2 -2 -1 -1 -1 -1 -1 -1 -1 -1 -1 -0 -0 -0 0 0 0 1 1 1 1 1 1 2 2 2 2 2 2 2 2 2 2 2 2 2 2 2
-2 -2 -2 -2 -2 -2 -2 -2 -2 -1 -1 -2 -2 -1 -1 -1 -1 -1 -0 -0 -0 -0 0 0 0 0 1 1 1 1 1 2 2 2 2 2 2 2 2 2 2 2 2
-2 -2 -2 -3 -3 -2 -2 -2 -2 -2 -2 -2 -2 -2 -2 -2 -1 -1 -1 -1 -1 -1 -1 -0 -0 -0 0 0 1 1 1 1 1 1 1 1 1 1 1 1 1 1 1
-3 -3 -3 -3 -3 -3 -3 -3 -2 -2 -2 -2 -2 -3 -2 -2 -2 -2 -2 -2 -1 -1 -1 -1 -1 -1 -0 -0 -0 0 0 1 1 1 1 1 1 1 1 1 1 1 1
-3 -3 -3 -3 -3 -3 -3 -3 -3 -3 -3 -3 -3 -3 -3 -3 -3 -2 -2 -2 -2 -2 -2 -1 -1 -1 -1 -1 -1 -1 -0 -0 0 0 1 1 1 1 1 1 1 0 0
-3 -3 -4 -4 -4 -4 -4 -3 -3 -3 -3 -3 -3 -3 -3 -3 -3 -3 -3 -3 -2 -2 -2 -2 -2 -2 -1 -1 -1 -1 -1 -1 -0 -0 0 0 0 0 0 0 0 0 0
-4 -4 -4 -4 -4 -4 -4 -4 -4 -3 -4 -4 -4 -4 -4 -3 -3 -3 -3 -3 -3 -3 -3 -2 -2 -2 -2 -2 -2 -1 -1 -1 -1 -0 -0 -0 -0 -0 -0 -0 -0 -0 -0
-4 -4 -4 -4 -4 -4 -4 -4 -4 -4 -4 -4 -4 -4 -4 -4 -4 -4 -3 -3 -3 -3 -3 -3 -3 -3 -2 -2 -2 -2 -2 -2 -1 -1 -1 -1 -1 -1 -1 -1 -1 -1 -1
-5 -5 -5 -5 -5 -5 -5 -4 -4 -4 -5 -5 -5 -5 -4 -4 -4 -4 -4 -4 -4 -3 -3 -3 -3 -3 -3 -3 -3 -2 -2 -2 -2 -2 -2 -2 -2 -1 -1 -1 -1 -1 -1
-5 -5 -5 -5 -5 -5 -5 -5 -5 -5 -5 -5 -5 -5 -5 -5 -4 -4 -4 -4 -4 -4 -4 -4 -4 -4 -3 -3 -3 -3 -3 -3 -3 -2 -2 -2 -2 -2 -2 -2 -2 -2 -2
-6 -6 -6 -6 -6 -6 -6 -6 -6 -6 -6 -6 -6 -5 -5 -5 -5 -5 -5 -4 -4 -4 -4 -4 -4 -4 -4 -4 -3 -3 -3 -3 -3 -3 -3 -3 -2 -2 -2 -2 -2 -2 -2
-6 -6 -6 -6 -6 -6 -6 -6 -6 -6 -6 -6 -6 -6 -6 -6 -6 -5 -5 -5 -5 -5 -5 -5 -5 -5 -4 -4 -4 -4 -3 -3 -3 -3 -3 -3 -3 -3 -3 -3 -3 -3 -3
-7 -7 -7 -6 -7 -7 -7 -7 -7 -7 -7 -7 -6 -6 -6 -6 -6 -6 -6 -6 -6 -6 -6 -6 -6 -5 -5 -5 -5 -4 -4 -4 -4 -4 -4 -3 -3 -3 -3 -3 -3 -3 -3
-7 -7 -7 -7 -7 -7 -7 -7 -7 -7 -7 -7 -7 -7 -7 -7 -7 -7 -7 -7 -7 -7 -7 -6 -6 -6 -6 -6 -5 -5 -5 -4 -4 -4 -4 -4 -4 -4 -4 -4 -4 -4 -4
-7 -8 -8 -8 -7 -7 -7 -7 -7 -7 -7 -7 -7 -8 -8 -8 -8 -8 -7 -7 -7 -7 -7 -7 -7 -7 -7 -6 -6 -6 -6 -5 -5 -5 -5 -5 -5 -5 -5 -5 -5 -4 -4
Wind_Speed
4 3 2 1 2 2 2 1 2 2 1 1 0 1 1 0 1 2 2 2 2 3 3 2 2 2 3 3 3 2 4 2 2 3 2 2 2 2 2 2 2 3 3
5 4 3 2 1 1 1 1 1 2 1 0 1 2 1 1 1 2 2 2 2 2 3 2 2 2 3 3 3 3 3 2 2 2 2 1 0 1 1 1 1 2 3
5 5 4 3 2 2 1 1 1 1 1 0 0 1 1 1 1 1 0 2 2 2 2 2 2 2 4 4 4 3 4 3 1 1 2 2 2 1 1 0 1 1 2
4 4 4 3 3 3 2 2 2 1 1 1 1 2 2 1 1 1 1 1 2 2 1 2 2 2 2 4 4 3 3 4 3 1 1 1 2 2 1 1 1 1 0
4 4 4 2 2 2 2 2 2 2 1 1 1 3 2 1 0 0 1 0 1 1 1 1 1 1 2 3 4 4 3 3 3 2 1 1 1 1 2 2 1 1 1
4 3 2 2 2 2 2 2 3 3 2 1 1 2 2 1 0 0 1 1 1 0 2 1 1 1 1 2 4 4 4 4 3 2 2 2 2 2 1 2 2 2 2
4 4 3 2 2 2 2 3 2 3 2 2 1 1 2 2 2 2 2 2 1 1 1 1 0 1 1 1 1 4 4 4 4 3 3 2 2 1 1 1 1 1 2
4 4 3 3 2 2 2 2 2 2 2 2 1 1 1 2 2 2 2 2 2 3 2 1 1 1 1 2 1 2 4 3 4 3 3 2 2 2 2 2 2 1 1
5 5 4 3 3 3 3 3 2 2 2 2 2 2 1 1 1 1 1 2 2 2 1 1 1 1 1 1 2 2 4 3 4 4 4 3 2 2 1 2 2 3 3
6 5 4 3 3 3 3 3 2 2 3 2 2 1 2 1 1 1 1 1 2 1 1 1 2 2 2 2 3 3 3 4 3 3 3 3 2 2 2 2 2 2 2
6 6 5 4 3 3 3 3 3 2 2 2 2 2 1 1 1 1 2 2 2 2 2 2 2 2 2 2 2 3 3 4 4 4 4 4 3 3 3 2 2 2 2
5 5 4 3 3 3 3 3 3 2 2 2 2 2 2 1 1 2 2 2 2 2 2 2 2 3 3 3 3 4 3 4 5 5 5 5 4 4 3 3 3 3 2
6 5 4 3 4 4 4 3 3 3 2 2 2 2 2 2 2 2 2 2 2 2 2 2 3 3 3 4 4 4 4 4 6 6 6 6 5 5 3 4 3 3 2
5 5 4 4 4 4 4 4 3 3 2 2 2 2 2 2 2 2 1 2 2 2 2 3 3 3 3 3 4 4 4 4 5 6 6 6 6 6 6 5 4 3 3
6 6 5 5 4 4 4 4 4 3 3 2 2 3 3 2 2 2 1 2 2 2 2 2 2 3 3 3 4 4 4 4 5 5 5 6 6 7 6 5 5 5 3
7 6 5 4 4 5 5 5 5 4 3 2 3 3 3 3 3 3 2 2 2 2 2 2 2 3 3 4 4 4 4 4 5 5 4 5 5 6 6 6 6 6 5
6 6 5 4 5 5 5 5 5 4 3 2 3 3 3 4 4 3 2 2 2 2 2 3 3 3 4 4 4 5 3 4 4 5 5 4 5 5 5 5 6 6 7
6 6 5 5 5 4 4 4 4 4 3 3 3 3 3 4 3 2 2 2 2 2 3 3 3 3 4 5 4 4 3 3 3 4 5 5 5 5 5 5 5 5 5
6 5 4 4 4 5 4 4 4 4 4 4 4 4 3 3 3 3 3 2 2 2 3 3 3 3 4 5 5 4 2 3 3 3 4 4 4 6 6 5 5 4 3
5 5 4 4 4 5 4 3 4 4 4 5 5 4 3 3 3 3 3 2 2 3 3 3 3 4 4 5 5 4 3 3 3 3 4 5 5 6 5 5 5 5 4
5 5 4 4 5 5 4 4 4 5 5 5 5 4 4 3 3 3 2 2 2 2 2 3 3 3 4 5 6 5 3 3 3 3 3 3 5 6 6 5 5 6 4
5 5 4 5 5 5 4 5 6 6 5 4 4 4 4 3 3 2 2 1 2 2 2 2 3 3 3 4 4 6 5 4 3 3 3 3 5 5 5 4 4 4 3
5 5 4 5 6 5 4 5 7 6 5 4 4 4 4 3 3 2 2 2 1 1 2 2 3 3 2 3 4 5 5 5 3 3 4 4 4 3 3 3 2 2 2
5 4 5 5 6 6 5 5 6 5 4 4 4 3 3 3 3 3 2 2 1 1 2 2 3 3 3 2 2 3 3 4 3 2 3 3 3 2 2 2 2 2 2
4 4 4 5 6 6 6 6 5 5 4 4 4 3 3 3 2 2 2 2 2 3 3 3 3 3 3 4 5 3 2 2 3 2 1 0 1 1 1 1 1 1 2
4 4 5 5 6 6 6 6 5 4 4 4 4 3 2 2 2 2 3 4 4 5 5 4 4 3 5 6 5 5 5 4 3 1 1 1 1 2 2 2 1 1 2
Wind_Direction
313 329 333 360 55 65 69 26 17 4 32 30 303 188 201 110 75 58 51 69 84 98 103 93 113 118 132 136 129 130 123 113 119 112 91 58 65 80 85 87 85 77 84
330 339 352 5 4 26 62 51 4 1 357 301 237 200 196 196 104 55 58 71 89 105 117 116 124 138 138 132 131 126 138 133 129 128 135 131 56 3 46 65 89 82 83
306 315 328 338 347 349 334 338 340 333 330 337 290 102 84 83 42 7 13 43 74 101 114 133 139 138 156 164 164 149 148 158 165 127 132 152 195 219 330 21 70 77 76
309 305 312 324 332 327 337 358 0 360 65 89 89 121 131 178 245 253 241 25 42 62 103 132 142 146 161 168 176 165 162 159 170 174 103 144 147 161 198 301 351 22 323
299 294 298 293 311 331 343 354 11 21 44 107 118 128 129 165 271 253 138 152 34 34 58 111 117 149 156 169 175 177 168 168 170 172 156 130 100 107 159 213 251 324 299
308 305 319 336 337 353 1 6 21 14 14 49 117 149 156 170 154 280 186 207 208 43 19 32 111 160 168 170 184 184 183 185 175 171 162 157 163 176 168 187 230 251 281
311 320 337 336 326 338 345 349 3 356 355 16 24 200 184 185 199 216 208 207 207 206 232 297 286 239 206 178 171 185 190 191 185 187 193 181 180 167 171 167 213 259 285
312 306 303 305 316 323 328 332 330 327 332 356 339 304 229 202 206 210 209 212 218 216 222 258 275 296 209 183 174 195 200 197 197 200 192 183 187 174 180 174 176 224 269
312 307 309 312 313 314 314 303 300 313 318 327 331 325 284 210 231 246 210 221 236 231 205 243 256 263 223 204 181 199 210 203 204 203 198 195 189 183 180 177 181 183 226
316 313 300 301 308 306 309 308 299 297 314 326 314 318 338 301 240 248 248 241 259 249 203 211 229 236 218 207 193 195 211 202 210 200 192 200 190 181 183 187 196 199 207
303 302 297 302 308 311 313 309 307 319 325 314 318 319 315 317 295 251 248 242 243 238 211 213 221 222 215 208 200 206 210 209 213 204 199 209 193 189 192 192 192 203 201
304 305 299 305 310 310 311 301 303 310 311 313 312 304 310 322 313 291 264 259 248 251 234 219 217 225 223 212 208 212 218 214 214 210 203 210 205 199 199 199 202 208 210
310 312 304 300 302 307 315 314 313 308 315 323 319 316 311 303 293 294 286 270 256 247 241 218 221 229 232 223 220 216 219 224 220 211 207 210 202 208 210 207 209 214 226
302 305 300 298 306 314 316 314 314 309 314 323 320 303 291 286 282 288 289 273 259 241 231 226 223 227 235 237 227 221 221 227 229 217 211 209 209 210 208 210 209 204 203
305 301 301 306 314 320 322 320 317 320 320 321 312 302 299 297 290 285 269 255 251 255 244 235 234 228 228 235 225 220 222 227 234 222 215 215 217 221 218 217 206 198 202
299 302 307 311 311 312 313 312 311 312 313 302 294 300 308 302 289 274 250 238 247 257 254 248 245 247 245 256 252 248 223 224 235 226 225 219 213 221 227 228 221 212 208
302 303 301 296 297 299 301 301 304 313 313 299 301 304 303 296 287 276 256 247 247 252 262 259 249 253 260 268 261 262 243 225 233 224 223 229 221 223 212 223 226 228 231
304 306 310 312 310 307 308 309 313 317 315 308 306 307 303 293 289 272 249 243 246 242 245 255 250 250 265 274 273 274 252 237 241 231 223 224 219 220 214 212 218 224 227
309 308 311 316 322 322 316 318 323 324 325 318 304 298 296 295 287 266 251 237 236 245 247 254 246 246 267 276 279 275 240 245 251 245 231 225 222 234 230 213 210 219 229
330 331 335 340 340 333 333 332 325 327 318 311 306 301 296 286 279 259 251 239 237 246 257 266 257 249 257 271 276 272 232 242 247 246 230 232 239 240 234 214 202 213 225
336 341 344 343 334 335 342 337 328 315 307 309 311 316 313 298 286 273 252 236 244 252 256 269 272 261 261 269 271 264 243 235 236 240 235 230 244 244 244 237 219 224 217
340 343 341 335 335 341 345 335 324 316 318 318 320 321 319 313 315 312 294 256 230 245 262 271 286 276 270 274 264 260 261 264 240 238 236 237 245 250 250 248 235 222 203
331 335 335 333 336 339 339 324 318 323 326 325 323 322 323 323 328 324 314 303 266 242 261 263 274 284 284 281 288 283 279 274 264 251 252 254 248 242 231 241 224 197 189
324 329 333 332 330 330 326 314 317 324 326 323 321 323 326 328 335 327 322 312 293 270 270 267 271 286 297 297 295 287 286 290 286 280 258 253 238 235 235 221 203 193 202
318 320 319 317 316 322 322 321 323 323 322 320 320 323 323 321 327 324 319 299 282 263 260 260 263 270 281 292 295 292 285 273 268 284 274 223 202 218 213 210 211 202 195
316 318 318 316 316 320 320 323 325 324 321 320 321 319 317 314 316 316 321 321 312 318 307 297 288 292 292 302 306 310 311 303 290 292 214 234 232 228 227 221 235 241 223
Height
1497 1496 1496 1495 1495 1496 1495 1496 1497 1496 1497 1498 1498 1499 1501 1502 1504 1506 1508 1510 1512 1513 1515 1517 1520 1522 1524 1526 1529 1531 1533 1535 1537 1538 1540 1542 1543 1544 1545 1547 1548 1548 1549
1494 1493 1493 1493 1494 1494 1494 1494 1495 1494 1495 1495 1496 1497 1498 1500 1501 1503 1505 1507 1508 1511 1512 1515 1516 1518 1521 1523 1526 1528 1530 1532 1534 1536 1537 1539 1542 1542 1543 1544 1545 1546 1547
1493 1492 1491 1491 1491 1491 1492 1492 1492 1493 1493 1493 1494 1495 1496 1498 1499 1501 1502 1504 1506 1507 1509 1511 1513 1515 1517 1520 1522 1525 1527 1529 1531 1534 1535 1537 1537 1538 1540 1541 1542 1543 1545
1492 1491 1490 1489 1489 1489 1490 1490 1490 1490 1490 1491 1491 1492 1493 1494 1495 1497 1499 1501 1503 1504 1506 1508 1510 1512 1514 1516 1519 1521 1524 1526 1528 1530 1532 1534 1535 1536 1536 1538 1539 1540 1542
1491 1490 1489 1489 1489 1489 1488 1488 1488 1488 1489 1489 1489 1490 1491 1492 1493 1494 1496 1498 1500 1501 1503 1505 1507 1509 1511 1513 1516 1518 1521 1523 1525 1527 1528 1530 1532 1533 1533 1533 1535 1537 1538
1489 1488 1488 1487 1487 1487 1487 1487 1486 1487 1487 1487 1487 1488 1489 1490 1491 1491 1493 1494 1496 1498 1500 1502 1504 1506 1508 1510 1512 1515 1517 1520 1522 1524 1525 1526 1528 1529 1530 1530 1531 1533 1535
1488 1486 1485 1485 1485 1485 1485 1485 1485 1485 1485 1485 1485 1485 1486 1486 1487 1488 1489 1491 1492 1494 1497 1499 1500 1502 1504 1507 1509 1511 1514 1516 1518 1520 1522 1523 1525 1527 1528 1528 1529 1529 1531
1487 1486 1485 1484 1483 1483 1484 1483 1483 1483 1482 1482 1482 1482 1483 1484 1485 1485 1486 1488 1489 1491 1493 1495 1497 1499 1501 1503 1506 1508 1510 1512 1515 1516 1518 1520 1521 1523 1524 1525 1526 1526 1527
1486 1485 1483 1482 1482 1482 1481 1481 1481 1480 1480 1480 1480 1480 1480 1481 1482 1483 1484 1485 1486 1488 1490 1492 1494 1496 1497 1499 1502 1504 1506 1508 1510 1512 1515 1516 1517 1519 1521 1522 1523 1524 1523
1484 1483 1483 1482 1481 1480 1480 1479 1478 1478 1478 1477 1477 1477 1477 1478 1479 1480 1481 1482 1483 1485 1486 1488 1490 1492 1494 1496 1497 1499 1502 1504 1506 1508 1510 1512 1513 1515 1516 1518 1520 1520 1521
1483 1482 1481 1480 1480 1479 1478 1477 1476 1475 1475 1475 1475 1474 1474 1475 1476 1477 1477 1479 1480 1481 1483 1485 1486 1488 1489 1491 1493 1495 1497 1499 1501 1503 1505 1507 1509 1510 1512 1514 1515 1516 1517
1483 1481 1480 1478 1477 1476 1475 1475 1474 1473 1473 1473 1472 1472 1472 1472 1473 1474 1474 1475 1476 1478 1479 1481 1482 1484 1485 1487 1489 1491 1493 1495 1496 1498 1500 1502 1504 1506 1507 1509 1510 1512 1512
1481 1479 1478 1477 1475 1474 1473 1471 1471 1470 1470 1470 1470 1470 1470 1469 1470 1470 1471 1472 1473 1474 1476 1477 1478 1479 1481 1483 1485 1487 1488 1490 1492 1494 1495 1497 1499 1500 1502 1504 1506 1507 1508
1479 1477 1475 1474 1473 1472 1471 1470 1469 1468 1468 1467 1467 1467 1467 1467 1466 1467 1468 1469 1470 1471 1472 1473 1474 1476 1477 1479 1480 1482 1484 1486 1487 1489 1491 1493 1494 1496 1498 1499 1501 1502 1503
1476 1474 1473 1472 1471 1470 1470 1468 1467 1466 1465 1464 1464 1464 1464 1464 1464 1464 1464 1465 1467 1468 1468 1469 1470 1472 1473 1474 1476 1478 1479 1481 1483 1484 1486 1488 1489 1491 1493 1495 1496 1497 1498
1474 1473 1472 1471 1470 1469 1468 1466 1465 1464 1463 1462 1461 1461 1461 1461 1461 1461 1461 1462 1463 1464 1465 1465 1466 1467 1469 1470 1472 1473 1475 1476 1478 1479 1481 1483 1484 1486 1488 1490 1491 1493 1494
1473 1472 1471 1469 1468 1467 1466 1464 1463 1461 1460 1459 1458 1458 1458 1458 1458 1457 1457 1458 1459 1460 1461 1462 1463 1463 1465 1466 1467 1469 1471 1472 1473 1474 1476 1477 1479 1481 1483 1484 1486 1487 1489
1472 1470 1469 1468 1467 1465 1464 1462 1461 1459 1457 1456 1456 1455 1455 1454 1454 1454 1453 1454 1456 1457 1458 1458 1459 1460 1460 1462 1463 1464 1466 1467 1468 1470 1471 1472 1474 1476 1477 1479 1480 1482 1483
1472 1470 1468 1467 1465 1463 1462 1460 1458 1456 1455 1453 1453 1452 1452 1451 1451 1450 1451 1451 1452 1453 1454 1455 1456 1456 1456 1458 1459 1460 1461 1463 1464 1465 1467 1468 1469 1470 1472 1474 1475 1476 1478
1471 1469 1467 1465 1463 1462 1460 1458 1456 1454 1452 1451 1450 1450 1449 1448 1447 1447 1448 1448 1449 1450 1450 1451 1452 1452 1453 1454 1455 1457 1458 1458 1459 1461 1462 1464 1465 1466 1467 1469 1470 1471 1472
1469 1468 1466 1464 1462 1460 1458 1456 1454 1452 1451 1449 1448 1447 1446 1445 1444 1444 1445 1445 1446 1446 1447 1447 1448 1449 1449 1450 1452 1453 1454 1455 1455 1456 1457 1459 1460 1462 1463 1464 1465 1466 1468
1468 1466 1464 1462 1460 1458 1456 1454 1452 1451 1449 1447 1445 1444 1443 1443 1442 1441 1441 1442 1442 1443 1443 1444 1444 1445 1446 1446 1447 1449 1451 1451 1452 1452 1453 1454 1456 1457 1458 1459 1460 1462 1463
1467 1465 1463 1461 1459 1457 1455 1452 1451 1449 1447 1445 1443 1442 1441 1440 1439 1439 1439 1439 1439 1439 1440 1440 1440 1441 1442 1443 1444 1446 1447 1448 1448 1449 1450 1451 1452 1453 1454 1455 1456 1457 1458
1465 1463 1461 1459 1457 1456 1453 1451 1449 1447 1445 1443 1441 1440 1438 1437 1437 1436 1436 1436 1436 1436 1436 1436 1437 1437 1438 1439 1440 1441 1442 1443 1444 1445 1445 1447 1448 1448 1449 1451 1452 1453 1454
1464 1462 1460 1458 1456 1454 1452 1450 1447 1445 1443 1441 1439 1438 1436 1435 1434 1434 1434 1433 1433 1433 1433 1434 1434 1434 1435 1436 1438 1438 1438 1439 1440 1440 1441 1442 1443 1444 1445 1446 1447 1448 1449
1462 1460 1458 1456 1454 1452 1450 1448 1446 1443 1441 1439 1437 1436 1435 1434 1433 1432 1432 1431 1431 1431 1431 1432 1432 1432 1433 1434 1434 1435 1436 1436 1436 1437 1437 1438 1438 1439 1440 1441 1442 1443 1444